Location: Atlanta
(33.7490°N, 84.3880°W)
Time: 03:21:54
(UTC-05:00)

Daily predictions for brighter satellites

Satellite Brightness Start Highest point End
(mag) Time Altitude Azimuth Time Altitude Azimuth Time Altitude Azimuth
CZ-3 R/B 4.4 02:15:46 10° W 03:29:36 54° S 03:39:23 10° SE
USA 229 DEB 4.2 04:53:48 54° SSE 04:53:48 54° SSE 04:59:11 10° SSE
USA 229 4.2 04:53:50 55° SSE 04:53:50 55° SSE 04:59:16 10° SSE
Thor Agena Rocket 4.1 05:03:07 10° SSE 05:07:55 58° E 05:07:55 58° E
CZ-3 Stage 3 2.7 05:12:38 46° SE 05:12:38 46° SE 05:19:55 10° ESE
Cosmos 1340 Rocket 4.4 05:21:34 33° ENE 05:21:51 33° ENE 05:25:28 10° SE
COSMO-SKYMED 1 4.0 05:26:39 10° SE 05:30:37 37° ENE 05:33:54 14° N
Atlas 2A Centaur Rocket 3.7 05:30:53 27° S 05:30:53 27° S 05:33:33 10° ESE
NOAA 6 4.1 05:28:27 10° NNE 05:33:40 79° ESE 05:38:51 10° S
OAO 2 Rocket 3.5 05:34:14 60° S 05:34:14 60° S 05:38:43 10° ESE
Meteor 2-1 Rocket 4.4 05:32:02 10° S 05:37:36 70° E 05:43:20 10° NNE
Cosmos 2058 3.4 05:38:10 40° NNE 05:39:23 58° E 05:43:29 10° SSE
Genesis I 3.6 05:41:35 58° SE 05:41:35 58° SE 05:44:46 10° SSE
GPS 2-05 Rocket1 4.4 05:42:13 32° E 05:42:13 32° E 05:44:07 10° E
NOSS 3-1 (C) 4.0 05:39:11 28° NNW 05:43:58 89° WSW 05:52:28 10° SSE
Cosmos 292 Rocket 4.4 05:49:58 14° N 05:54:02 54° ENE 05:58:43 10° SSE
Tiangong 2 3.1 05:59:08 20° NNE 05:59:08 20° NNE 06:00:36 10° NE
SL-16 R/B 3.6 06:01:28 21° SW 06:01:28 21° SW 06:04:06 10° SSW
Cosmos 1356 Rocket 4.2 05:55:42 10° N 05:59:46 53° E 06:03:52 10° SSE
SKYMED 3 4.5 05:56:15 10° SSE 06:00:34 87° E 06:04:18 14° N
BREEZE-M DEB (TANK) 3.9 05:52:19 22° NW 06:01:12 68° SW 06:05:22 10° SSE
Cosmos 1626 3.1 06:00:40 10° N 06:04:16 46° E 06:07:52 10° SSE
SeaSat 1 4.2 06:07:37 10° N 06:09:00 15° NNW 06:09:00 15° NNW
Meteor 1-28 Rocket 3.3 06:09:01 10° SSE 06:12:45 74° ENE 06:16:29 10° N
Meteor 2-12 Rocket 4.4 06:07:29 10° SSW 06:13:32 60° W 06:19:38 10° N
Ariane Rocket 3.0 06:09:29 10° NNE 06:14:37 90° E 06:19:43 10° SSW
Cosmos 2221 2.8 06:11:07 10° SSW 06:15:13 42° W 06:19:19 10° N
SKYMED 2 3.6 06:14:23 10° S 06:18:37 56° W 06:22:32 12° NNW
SL-8 R/B 3.7 06:17:14 26° NW 06:19:56 77° NE 06:24:43 10° SE
Cosmos 923 Rocket 3.9 06:15:14 11° NNW 06:20:19 72° WSW 06:25:33 10° S
H-2A R/B 2.0 06:20:50 19° SSW 06:21:09 20° S 06:22:34 10° SE
Cosmos 2034 Rocket 3.9 06:15:12 10° SSW 06:21:21 73° W 06:27:37 10° N
DELTA 2 R/B (1) 4.0 06:18:45 27° WNW 06:21:26 47° N 06:26:48 10° ENE
Cosmos 1898 Rocket 3.9 06:19:12 10° S 06:24:24 68° ESE 06:29:39 10° NNE
Cosmos 1680 Rocket 3.5 06:21:45 10° NNW 06:27:05 83° WSW 06:32:23 10° SSE
CZ-4 R/B 2.6 06:23:37 10° NNE 06:27:35 45° E 06:31:34 10° S
Cosmos 1703 3.3 06:25:28 10° NNW 06:29:19 54° W 06:33:09 10° S
Cosmos 2151 4.1 06:29:47 22° W 06:29:47 22° W 06:32:46 10° SW
Cosmos 2344 3.6 06:23:29 10° SW 06:31:11 76° WNW 06:39:30 10° NNE
Cosmos 1666 Rocket 3.5 06:31:05 10° N 06:35:34 77° W 06:40:01 10° S
PAYLOAD A 3.9 06:30:49 10° NNE 06:35:44 88° ESE 06:40:28 10° SSW
IDEFIX/ARIANE 42P 3.3 06:31:09 10° NNE 06:36:22 59° E 06:41:32 10° S
Cosmos 1943 3.2 06:32:28 10° NNW 06:38:12 85° WSW 06:43:51 10° SSE
Cosmos 2150 Rocket 4.3 06:33:11 10° S 06:38:36 77° ESE 06:43:59 10° NNE
Cosmos 1092 Rocket 4.4 06:37:23 10° N 06:43:37 66° E 06:49:44 10° SSE
Cosmos 1184 Rocket 3.3 06:43:55 10° NNW 06:47:01 38° W 06:50:07 10° SSW
Gbstr 26 Del rocket 4.3 06:43:31 14° W 06:47:39 37° NNW 06:53:39 10° NE
CSL-04 Debris 4.2 06:44:36 10° N 06:50:00 60° WNW 06:55:19 10° SSW
Cosmos 1937 Rocket 3.5 06:46:22 10° SSW 06:51:30 88° ESE 06:56:40 10° NNE
Cosmos 2263 Rocket 2.5 06:46:40 10° SW 06:52:02 43° WNW 06:57:27 10° N
Cosmos 1844 Rocket 4.5 06:49:36 10° S 06:54:43 36° ESE 06:59:51 10° NE
NOSS 3-3 (A) 4.0 06:51:15 10° SSW 06:57:22 83° WNW 07:03:55 10° NNE
NOSS 3-3 (C) 4.0 06:51:22 10° SSW 06:57:29 84° WNW 07:04:02 10° NNE
Cosmos 1726 2.7 06:54:48 10° S 06:58:25 61° E 07:02:05 10° NNE
Cosmos 389 Rocket 3.5 06:55:29 10° SW 06:58:38 27° WNW 07:01:48 10° NNW
Coronas F rocket 2.0 06:57:12 10° NNW 06:59:18 26° W 07:01:23 10° SSW
MSX 4.4 06:55:42 10° NNE 07:01:26 65° ESE 07:07:10 10° S
Cosmos 2112 Rocket 4.5 06:58:20 10° NNW 07:03:21 42° WSW 07:08:21 10° S
ATLAS 2AS CENTAUR R/B 3.3 06:57:21 10° NNW 07:05:22 72° ENE 07:12:42 10° SE
COSMO-SKYMED 1 4.2 07:04:23 10° SW 07:06:52 15° W 07:09:21 10° WNW
ATLAS 3B CENTAUR R/B 4.1 07:01:05 10° WSW 07:07:13 60° SSE 07:25:10 10° E
Cosmos 1470 Rocket 3.5 07:04:05 10° N 07:08:25 84° W 07:12:47 10° S
Cosmos 2298 Rocket 4.3 07:03:59 10° SW 07:09:03 46° WNW 07:14:09 10° N
CSL-04 Rocket 4.3 07:06:29 10° N 07:11:03 31° WNW 07:15:38 10° SW
Cosmos 1908 4.4 07:08:16 10° SW 07:11:17 22° WNW 07:14:19 10° NNW
CZ-2C R/B 2.3 07:08:31 10° N 07:12:58 54° WNW 07:17:26 10° SSW
USA 234 4.5 07:07:58 10° E 07:13:45 35° NE 07:19:32 10° NNW
Milstar 3 Cent rocket 3.3 07:07:28 10° WSW 07:15:22 47° S 07:20:13 10° E
